RH
26 33 37 32 42 77 85 85 71 63 29 22 22 23 22 20 17 15 15 17 22 24 27 39 28 35 64 74 43 44 47 36 40 41 37 38 36 30 27 25 24 22 18 17 16 15 17 17 17
22 37 36 35 34 56 67 87 100 75 54 27 22 21 19 16 15 19 21 26 26 26 56 56 49 59 82 84 44 51 41 40 34 29 32 37 38 34 32 28 25 19 16 14 12 14 16 18 21
23 33 38 32 29 32 66 69 99 99 67 36 26 22 19 18 19 24 31 35 35 28 46 59 54 53 55 51 50 51 43 37 33 34 27 33 34 32 27 23 17 19 23 19 18 17 27 71 81
26 33 32 30 30 37 54 78 59 66 100 91 46 27 21 20 22 31 46 56 72 43 37 44 44 46 42 41 45 49 46 39 34 30 33 33 38 30 28 24 18 22 24 20 14 18 71 100 83
28 31 33 29 32 37 55 78 89 64 67 100 100 78 66 41 42 35 39 63 85 43 38 44 41 34 40 40 40 37 37 40 43 43 39 34 24 20 24 24 29 22 18 16 13 28 100 81 98
30 31 34 36 34 42 55 92 92 100 62 76 100 100 100 99 95 90 76 74 95 46 43 34 34 32 31 32 30 34 35 38 36 33 27 26 24 24 24 22 19 15 16 13 18 30 96 100 93
32 31 36 37 27 41 78 72 98 100 100 100 99 94 100 100 85 100 100 100 100 74 41 34 33 30 29 28 28 29 27 30 30 29 26 22 20 21 20 17 21 18 17 18 24 59 97 100 100
35 33 36 37 32 35 64 64 61 88 100 92 91 60 37 70 100 100 100 100 100 87 54 34 32 32 35 35 33 31 29 26 29 32 32 27 21 21 28 28 22 21 25 26 39 76 100 100 100
39 37 36 43 44 32 37 38 63 66 68 100 100 83 81 86 100 100 100 100 100 100 74 40 33 34 40 42 44 35 33 32 29 28 28 28 29 32 30 28 27 24 33 64 79 100 100 100 100
43 41 36 38 43 34 31 36 60 48 62 82 92 86 100 100 100 100 58 49 99 100 85 43 31 34 39 36 56 60 44 36 33 32 28 25 27 26 26 24 24 23 50 59 94 92 100 100 100
42 43 42 36 44 43 45 37 37 35 38 42 47 46 96 100 100 100 100 61 40 99 100 52 31 33 34 35 44 71 66 52 40 32 30 28 31 31 27 32 52 25 40 61 68 82 100 100 100
36 45 44 43 44 50 54 48 32 31 30 35 38 42 98 100 100 86 85 99 78 100 100 100 56 51 48 58 65 88 76 70 46 42 42 37 35 41 40 39 62 57 66 57 70 99 100 100 100
33 43 50 42 44 53 65 55 51 44 48 32 45 47 46 61 98 100 100 89 86 100 100 100 100 100 100 93 85 89 67 47 45 48 46 39 34 43 66 76 68 74 92 48 56 80 100 100 100
25 45 54 45 43 58 62 60 57 54 65 70 45 40 56 74 64 83 100 100 95 78 100 100 96 95 89 83 80 88 90 75 69 70 67 59 34 40 70 81 64 79 91 63 43 71 94 100 92
24 27 43 53 38 47 75 73 77 77 88 86 79 51 34 39 92 100 100 100 100 91 88 87 88 81 82 87 96 100 95 87 80 78 59 54 40 36 49 61 62 51 100 90 59 64 83 100 96
22 24 26 45 38 39 76 74 70 84 99 83 66 49 35 26 27 28 34 55 73 56 56 63 66 71 74 77 87 75 72 68 62 57 59 69 71 91 75 64 84 59 66 73 78 55 78 83 98
19 31 32 32 46 40 83 97 65 82 86 100 72 45 38 29 46 47 37 33 35 47 46 45 48 50 52 55 57 54 42 41 44 54 62 78 85 91 88 66 58 59 60 75 61 88 63 71 94
17 36 39 23 31 43 38 100 100 85 96 100 100 94 63 48 40 40 44 62 69 68 65 61 57 51 52 56 56 53 58 57 62 78 100 100 100 99 97 87 80 100 98 77 85 72 60 65 75
18 23 36 37 32 40 29 30 88 62 92 100 100 96 100 100 100 90 100 98 77 56 60 68 68 71 80 78 87 88 89 88 98 94 100 100 100 100 97 83 74 99 100 100 100 64 63 60 70
22 20 40 37 39 42 31 29 24 40 72 100 100 100 99 93 74 65 53 56 55 53 52 52 66 83 85 86 85 85 82 71 48 43 46 49 50 70 80 68 67 100 94 93 65 71 71 100 77
21 22 28 54 59 73 57 41 30 28 39 36 36 36 46 74 66 63 58 49 52 58 58 59 52 48 45 45 39 44 42 49 52 62 70 67 62 85 87 64 63 63 78 57 54 100 71 97 80
32 22 25 29 52 91 75 44 53 40 33 39 46 52 63 70 70 71 64 43 48 53 44 38 41 36 34 46 51 57 68 71 68 65 74 71 69 68 83 69 74 46 74 63 97 100 76 79 62
46 25 29 34 46 55 84 72 57 73 73 56 58 59 74 90 47 56 37 91 85 67 45 42 54 64 74 55 57 78 84 89 87 97 99 96 97 100 100 93 86 80 65 78 96 100 90 100 100
78 47 24 33 38 80 35 65 99 83 100 100 100 100 71 35 89 93 36 41 49 45 66 76 92 99 100 100 100 100 100 100 100 98 100 100 100 100 100 100 100 83 76 100 71 86 99 87 100
86 58 30 27 42 32 43 57 34 37 46 37 62 97 84 85 62 66 40 46 49 72 100 100 92 100 84 85 95 99 100 88 100 95 96 89 86 82 75 73 73 89 85 95 99 83 80 97 78
81 60 46 33 40 49 41 34 54 50 39 37 42 40 37 47 55 59 62 80 90 100 100 73 75 90 80 85 97 100 84 74 57 47 58 63 58 69 82 84 69 90 89 81 100 100 81 100 100
86 68 55 42 31 47 48 56 39 39 56 41 54 67 74 80 78 82 87 100 94 94 69 95 81 82 78 63 48 41 33 33 30 35 33 29 32 35 40 43 58 51 66 82 79 92 100 100 100
100 90 81 51 36 62 75 87 69 74 77 71 50 58 75 96 88 100 99 100 93 70 85 84 95 49 39 35 24 21 22 23 20 16 15 14 16 20 22 27 35 36 40 52 75 85 83 96 100
100 85 76 58 42 47 66 51 100 83 62 70 71 61 73 77 100 100 100 96 85 88 64 73 73 50 32 22 17 16 11 9 9 8 7 8 9 11 11 11 13 18 27 44 54 70 87 86 87
89 83 90 55 50 31 96 49 74 75 99 77 84 70 86 100 100 100 100 88 69 64 90 86 58 37 19 16 11 8 6 7 6 6 6 6 6 7 7 8 11 18 21 31 55 66 58 78 73
Wind_Speed
32 22 19 18 20 20 21 19 18 16 14 15 10 11 11 10 10 8 8 8 12 12 10 10 9 10 14 16 14 11 14 16 14 16 16 18 23 25 26 27 29 29 27 27 30 32 32 32 32
34 25 17 18 21 24 22 17 19 16 17 17 15 11 11 11 9 11 12 12 17 17 10 9 9 11 13 16 16 17 17 16 17 17 17 18 22 24 24 26 30 29 31 31 27 23 25 26 30
31 25 17 17 20 23 27 23 20 16 16 18 18 19 15 13 10 12 17 15 19 19 13 8 7 11 17 17 16 18 20 18 19 20 21 24 25 26 25 25 26 26 29 28 32 33 34 27 30
26 25 18 15 21 22 25 24 21 23 18 17 17 18 18 18 17 17 19 20 18 19 18 9 11 13 19 22 22 17 20 21 24 24 27 28 27 27 28 28 29 31 31 33 37 34 32 33 35
27 24 20 14 21 24 23 26 22 24 26 24 22 22 23 18 20 22 24 22 21 17 19 17 18 17 20 22 27 26 25 26 26 28 29 28 25 27 27 31 33 35 35 35 30 34 33 34 34
27 25 19 17 19 24 20 26 28 22 25 26 28 25 25 23 25 26 27 27 25 16 21 24 22 23 21 25 27 29 30 26 29 32 31 27 30 33 31 32 35 39 40 37 38 44 34 36 31
30 24 17 16 14 18 19 22 28 29 29 30 27 27 26 26 26 32 30 26 24 22 23 22 24 24 23 24 25 27 27 32 36 34 32 32 34 35 35 37 39 42 46 48 47 36 33 30 33
32 25 18 15 16 16 21 21 26 30 30 28 27 26 24 25 29 32 35 27 29 27 25 24 26 26 24 26 27 24 31 33 34 36 35 36 37 39 41 40 43 43 45 47 42 34 28 30 36
31 26 19 16 16 17 23 24 24 26 29 29 29 28 26 29 32 33 35 36 30 32 27 30 30 31 29 29 27 29 29 30 33 32 33 33 34 35 34 31 34 39 36 40 37 33 22 27 28
30 26 22 18 15 17 20 21 23 24 24 28 31 28 28 33 33 35 35 31 28 30 30 34 35 33 34 34 30 34 33 36 33 33 31 34 34 37 38 37 35 34 35 34 40 38 28 25 28
29 26 23 20 17 16 18 19 21 24 27 29 28 28 24 28 31 32 37 39 35 34 31 38 36 37 40 40 37 38 33 36 35 33 33 35 32 28 33 33 36 36 32 39 45 39 31 27 26
31 27 24 20 18 19 23 21 19 19 21 22 28 29 33 37 36 36 38 39 36 32 36 33 37 41 43 42 42 33 33 36 31 34 35 36 34 31 29 33 34 34 33 32 39 43 38 31 33
29 27 27 24 21 24 24 22 23 24 20 18 20 21 29 35 35 36 36 36 35 35 40 38 41 37 36 37 38 37 37 36 37 38 38 38 38 35 32 34 34 38 37 38 34 41 43 37 32
30 28 27 27 22 25 26 26 22 24 22 26 23 20 22 25 30 33 35 34 38 35 35 31 26 26 28 30 32 36 37 38 39 41 43 46 46 41 39 38 45 48 49 41 42 44 44 38 39
29 29 28 26 26 22 28 31 28 25 29 33 32 27 25 23 25 30 30 27 23 26 29 30 31 33 35 36 36 38 40 39 40 43 45 45 46 47 44 47 53 60 57 54 53 47 46 45 47
29 28 28 26 27 22 28 35 34 33 30 32 31 29 26 26 26 28 31 33 33 37 37 37 41 43 46 48 51 49 48 45 50 55 56 60 60 59 59 58 60 64 63 60 62 56 54 50 50
28 30 27 24 27 25 30 37 36 37 36 35 33 33 31 26 28 33 33 36 39 43 44 45 48 52 52 55 58 57 54 56 62 62 64 66 68 69 73 67 66 67 70 71 68 68 57 53 50
30 35 31 29 21 29 26 36 38 38 38 37 37 37 36 35 39 41 43 44 46 46 49 51 55 55 60 60 60 61 63 63 67 72 74 75 75 74 72 73 72 75 76 74 73 73 64 57 62
32 30 33 34 28 25 28 29 39 36 33 38 40 39 39 46 46 39 44 48 50 55 57 59 60 61 62 65 68 69 70 70 73 73 74 76 80 80 80 81 83 79 78 78 80 80 74 68 72
39 29 36 35 36 33 30 32 36 38 37 40 43 45 45 42 40 46 49 53 56 58 61 63 64 68 71 74 77 79 81 80 81 79 81 82 78 79 81 83 83 85 79 80 80 81 79 81 78
49 35 27 40 43 43 37 34 36 33 33 38 41 44 47 49 50 51 53 55 58 57 61 64 68 71 69 73 76 78 80 84 90 90 87 91 88 82 83 82 83 84 81 77 77 79 83 70 66
55 47 34 28 39 49 42 32 38 32 40 47 50 53 52 55 55 59 64 61 63 67 64 67 70 76 80 82 85 88 94 97 99 97 102 106 100 95 94 89 89 89 83 73 70 69 72 74 74
57 53 48 36 37 33 46 47 41 45 42 49 53 57 59 58 54 62 65 67 72 74 72 66 71 75 73 85 94 96 95 98 103 106 109 111 116 108 103 103 110 97 82 65 58 77 87 79 64
56 56 52 46 36 40 35 41 49 47 51 52 54 56 56 56 62 65 66 63 64 64 66 77 85 84 84 85 94 96 99 108 112 108 110 118 116 122 118 113 111 108 84 94 96 95 98 94 82
54 55 52 48 51 40 42 41 37 42 45 47 55 60 57 58 60 64 63 67 76 74 80 89 94 93 109 109 113 114 116 103 107 109 112 111 115 111 108 111 109 108 102 103 109 101 97 90 90
59 61 60 52 52 55 47 42 49 49 45 48 46 46 52 63 70 73 77 79 82 85 92 103 104 119 120 111 103 107 106 106 112 111 110 117 117 114 118 120 114 115 113 106 105 106 98 105 98
64 63 61 61 55 55 60 60 64 51 53 58 63 66 71 71 77 78 84 87 92 98 108 111 123 118 111 106 107 108 111 115 117 118 119 118 119 118 118 116 121 119 120 114 113 106 101 90 89
65 63 66 64 61 61 66 68 70 68 70 66 70 67 69 77 83 85 93 93 111 112 117 120 125 110 113 113 116 117 117 117 116 117 120 118 115 114 113 110 118 119 121 120 117 114 110 114 113
63 68 70 70 69 68 63 74 79 76 73 79 81 87 80 83 90 96 96 110 121 124 124 131 130 118 113 115 112 102 98 98 99 104 101 100 100 101 103 100 106 111 108 112 113 116 116 116 115
71 72 72 72 73 75 75 73 81 83 81 82 87 92 88 93 99 100 108 113 126 125 135 134 121 117 111 103 92 90 84 85 88 83 82 80 79 80 85 87 89 92 94 95 102 106 104 103 96
Wind_Direction
325 322 301 286 280 276 285 267 269 268 279 280 245 237 234 240 249 253 268 276 296 295 297 335 331 329 314 299 298 301 281 300 275 265 259 261 267 269 272 276 279 281 290 293 295 297 296 291 295
327 324 301 282 285 272 275 279 270 268 268 285 276 259 263 266 281 294 306 305 310 319 321 330 316 295 275 262 272 278 278 263 252 255 248 265 271 271 271 280 281 290 288 285 296 308 300 300 284
327 325 307 298 289 280 272 271 273 266 265 268 283 278 276 271 280 299 302 312 309 310 311 287 279 255 257 252 257 263 264 245 236 252 267 274 277 278 283 289 296 300 303 307 311 314 316 316 312
326 321 313 299 301 294 281 270 269 281 279 271 271 275 276 289 291 288 292 293 305 296 298 259 237 257 255 251 256 250 254 255 257 274 278 280 284 290 287 287 293 301 303 304 314 319 316 311 310
322 327 323 308 302 296 287 281 272 274 279 286 276 276 283 270 276 270 265 271 282 285 276 261 271 272 257 264 259 269 277 268 268 272 274 276 275 284 287 292 294 296 302 305 315 319 309 315 312
322 327 320 321 309 296 294 282 280 277 275 283 287 278 286 294 288 285 270 266 268 260 259 259 264 266 266 258 268 264 267 270 270 268 270 275 280 284 287 297 302 302 298 301 311 313 311 310 313
317 325 315 327 300 291 286 277 276 273 274 278 283 289 287 291 292 293 291 278 273 261 237 238 251 257 259 264 268 267 273 270 270 266 271 275 277 280 289 292 297 303 304 305 306 305 318 319 319
317 321 320 307 301 284 275 273 270 269 269 269 275 280 281 281 291 287 290 271 268 268 248 242 246 254 256 260 265 270 270 275 279 274 277 282 282 282 288 290 294 301 305 306 308 309 320 327 311
315 320 315 309 313 291 279 277 277 275 272 272 277 278 289 281 277 281 289 287 262 267 254 243 246 249 251 259 268 267 272 276 278 278 279 282 285 283 294 302 301 310 313 308 312 326 307 325 312
319 319 311 303 306 310 294 286 279 281 275 272 271 273 273 271 276 277 269 271 285 269 257 240 243 250 258 266 276 276 272 273 274 280 282 282 283 287 289 295 298 305 313 310 312 316 315 315 306
317 317 312 309 299 302 312 281 275 279 278 274 276 271 276 275 275 272 274 276 273 275 276 243 246 247 255 262 266 267 271 273 276 275 279 280 279 292 291 303 298 295 315 310 310 314 315 307 298
312 312 311 303 295 293 296 295 278 288 297 281 270 259 254 257 263 269 271 271 271 276 274 258 251 255 258 264 270 265 267 274 269 279 281 280 285 284 301 291 302 312 308 313 308 312 306 297 291
316 313 315 310 291 291 293 288 292 296 301 293 278 268 264 259 267 264 266 269 273 268 278 268 261 259 260 262 266 270 267 266 274 280 285 284 290 286 288 300 302 308 305 304 307 304 306 292 280
321 314 314 312 302 287 291 290 284 287 294 297 284 282 277 267 266 269 268 259 262 263 268 262 271 271 271 271 273 269 269 270 274 275 281 281 286 285 284 285 291 299 302 301 304 308 300 285 270
327 319 315 316 310 294 291 288 293 287 293 289 292 289 284 276 269 258 265 260 261 272 270 275 280 278 278 275 276 279 277 275 281 283 289 283 280 279 282 289 294 301 298 297 298 297 301 288 282
329 324 319 316 311 311 286 284 286 294 294 288 282 279 275 273 278 276 274 275 272 283 284 282 281 281 283 282 280 283 286 281 283 292 293 295 292 288 288 289 291 295 296 294 293 294 300 295 291
329 318 316 311 309 313 290 280 281 282 285 286 280 275 270 257 266 268 268 271 274 280 279 278 278 279 279 281 284 286 287 289 293 294 292 292 290 286 289 290 294 291 293 296 294 296 294 290 286
337 319 311 315 312 308 293 285 285 283 283 288 275 268 266 263 262 266 267 268 266 270 272 274 276 275 281 282 279 282 284 283 284 284 286 285 287 284 280 283 288 288 289 288 292 292 291 286 281
341 326 313 310 312 304 298 293 284 284 288 290 284 278 271 264 271 277 274 274 275 273 274 275 275 278 279 279 279 280 280 280 281 284 284 284 284 283 282 280 282 286 286 284 287 288 288 285 285
331 349 316 315 312 312 310 301 294 289 280 278 279 283 278 268 278 283 281 278 280 282 282 282 281 279 279 279 277 279 278 280 276 282 290 288 290 288 285 280 284 288 286 283 285 288 287 288 287
325 329 331 308 308 307 302 297 295 290 296 294 289 289 287 276 279 284 285 288 286 283 284 286 286 285 282 283 281 281 280 281 280 275 279 288 286 281 285 284 282 285 282 285 289 291 287 282 286
316 329 320 320 304 304 302 295 296 300 292 287 286 292 295 291 292 294 292 286 289 293 292 293 291 287 285 285 285 285 283 283 281 281 273 280 287 286 280 284 284 279 278 278 295 274 277 278 289
310 322 321 309 311 309 297 302 288 297 294 284 291 289 289 291 295 299 296 291 291 289 290 289 292 294 297 280 279 284 284 284 282 279 279 278 279 279 276 274 271 277 269 263 244 258 268 277 277
306 311 321 313 308 299 312 307 300 302 295 293 293 295 289 284 293 295 297 293 296 299 299 293 300 301 292 292 291 285 285 286 284 275 273 281 277 272 274 270 273 273 266 258 253 254 262 258 260
303 309 313 317 305 305 298 293 307 301 287 297 296 293 291 292 295 297 307 308 308 298 298 304 304 300 305 302 299 297 294 288 286 281 278 273 277 275 271 272 271 268 264 262 258 255 256 260 254
301 303 310 312 302 303 298 307 289 299 294 288 298 302 285 291 299 304 313 312 309 305 302 301 305 307 303 301 294 290 285 282 279 275 275 270 269 267 265 266 264 263 259 255 253 259 252 253 263
301 302 305 307 308 300 297 297 305 307 305 302 292 295 298 299 300 300 310 307 310 304 302 309 310 308 305 300 294 289 285 281 279 275 271 268 267 266 264 261 262 261 259 255 252 245 242 246 249
298 300 300 305 308 300 302 299 304 295 294 305 311 306 299 298 305 304 306 308 308 311 313 312 315 306 301 294 289 286 281 279 276 272 269 266 265 265 263 262 263 264 260 256 251 249 247 245 244
296 301 301 303 308 301 299 304 298 300 302 300 308 306 304 308 307 309 306 305 316 314 313 313 315 307 297 291 288 283 280 276 275 272 271 271 267 263 262 261 261 258 256 255 253 254 252 251 248
297 301 298 302 307 306 297 301 306 304 300 304 305 307 305 305 307 305 305 315 317 316 316 315 312 304 298 295 292 287 285 281 278 279 274 269 265 263 262 260 258 256 254 253 253 254 252 252 247